Weather History for Springfield, IL

Change the Weather History Date:

Saturday, September 14, 2013

  Actual Average Record
Temperature  
Mean Temperature 58 °F 68 °F  
Max Temperature 73 °F 80 °F 100 °F (1939)
Min Temperature 42 °F 55 °F 37 °F (1996)
Degree Days  
Heating Degree Days 7 2  
Month to date heating degree days 9 13  
Since 1 July heating degree days 20 18  
Cooling Degree Days 0 4  
Month to date cooling degree days 117 82  
Year to date cooling degree days 1057 1052  
Growing Degree Days 8 (Base 50)    
Moisture  
Dew Point 45 °F    
Average Humidity 68    
Maximum Humidity 100    
Minimum Humidity 35    
Precipitation  
Precipitation 0.00 in 0.10 in 2.97 in (2008)
Month to date precipitation 0.77 1.39  
Year to date precipitation 31.44 27.04  
Snow  
Snow 0.00 in 0.00 in 0.00 in ()
Month to date snowfall 0.0 0.0  
Since 1 July snowfall 0.0 0.0  
Since 1 September snowfall 0.0 0.0  
Snow Depth 0.00 in    
Sea Level Pressure  
Sea Level Pressure 30.12 in    
Wind  
Wind Speed 4 mph (SE)    
Max Wind Speed 10 mph    
Max Gust Speed 18 mph    
Visibility 10 miles    
Events      
T = Trace of Precipitation, MM = Missing Value Source: NWS Daily Summary

Daily Weather History Graph

Daily Weather History Graph

Search for Another Location

Airport:

Trip Planner

Search our weather history database for the weather conditions in past years. The results will help you decide how hot, cold, wet, or windy it might be!

Date:

Astronomy

Sep. 14, 2013 Rise Set
Actual Time 6:39 AM CDT 7:08 PM CDT
Civil Twilight 6:11 AM CDT 7:35 PM CDT
Nautical Twilight 5:39 AM CDT 8:07 PM CDT
Astronomical Twilight 5:07 AM CDT 8:40 PM CDT
Moon 3:49 PM CDT (9/14) 1:11 AM CDT (9/14)
Length of Visible Light 13h 23m
Length of Day
12h 29m
Waxing Gibbous, 72% of the Moon is Illuminated
Sep 14
Waxing Gibbous
Sep 19
Full
Sep 26
Last Quarter
Oct 4
New
Oct 11
First Quarter

Hourly Weather History & Observations

Time (CDT) Temp. Windchill Dew Point Humidity Pressure Visibility Wind Dir Wind Speed Gust Speed Precip Events Conditions
12:52 AM 52.0 °F - 45.0 °F 77% 30.15 in 10.0 mi East 5.8 mph - N/A   Clear
1:52 AM 51.1 °F - 45.0 °F 80% 30.15 in 10.0 mi East 4.6 mph - N/A   Clear
2:52 AM 48.9 °F - 45.0 °F 86% 30.15 in 10.0 mi Calm Calm - N/A   Clear
3:52 AM 46.0 °F - 43.0 °F 89% 30.14 in 10.0 mi Calm Calm - N/A   Clear
4:52 AM 45.0 °F 43.5 °F 44.1 °F 97% 30.14 in 10.0 mi NNE 3.5 mph - N/A   Clear
5:52 AM 43.0 °F - 42.1 °F 97% 30.16 in 10.0 mi Calm Calm - N/A   Clear
6:52 AM 44.1 °F 42.5 °F 43.0 °F 96% 30.17 in 10.0 mi North 3.5 mph - N/A   Clear
7:52 AM 48.9 °F - 46.0 °F 90% 30.18 in 10.0 mi East 4.6 mph - N/A   Clear
8:52 AM 54.0 °F - 46.0 °F 75% 30.19 in 10.0 mi ESE 4.6 mph - N/A   Clear
9:52 AM 57.9 °F - 46.0 °F 65% 30.20 in 10.0 mi SSW 3.5 mph - N/A   Clear
10:52 AM 63.0 °F - 45.0 °F 52% 30.19 in 10.0 mi South 3.5 mph - N/A   Clear
11:52 AM 66.0 °F - 43.0 °F 43% 30.17 in 10.0 mi SE 4.6 mph - N/A   Clear
12:52 PM 68.0 °F - 44.1 °F 42% 30.16 in 10.0 mi Variable 4.6 mph - N/A   Clear
1:52 PM 70.0 °F - 43.0 °F 38% 30.13 in 10.0 mi Variable 3.5 mph - N/A   Clear
2:52 PM 73.0 °F - 45.0 °F 37% 30.10 in 10.0 mi SSE 10.4 mph - N/A   Clear
3:52 PM 71.1 °F - 42.1 °F 35% 30.08 in 10.0 mi SSE 4.6 mph - N/A   Clear
4:52 PM 72.0 °F - 44.1 °F 37% 30.08 in 10.0 mi South 6.9 mph - N/A   Clear
5:52 PM 70.0 °F - 46.0 °F 42% 30.06 in 10.0 mi SSE 5.8 mph - N/A   Clear
6:52 PM 63.0 °F - 46.9 °F 56% 30.06 in 10.0 mi SSE 3.5 mph - N/A   Clear
7:52 PM 57.0 °F - 48.9 °F 74% 30.06 in 10.0 mi ESE 3.5 mph - N/A   Clear
8:52 PM 59.0 °F - 48.0 °F 67% 30.06 in 10.0 mi SSE 4.6 mph - N/A   Clear
9:52 PM 53.1 °F - 48.0 °F 83% 30.07 in 10.0 mi Calm Calm - N/A   Clear
10:52 PM 54.0 °F - 48.0 °F 80% 30.06 in 10.0 mi Calm Calm - N/A   Clear
11:52 PM 53.1 °F - 46.9 °F 80% 30.06 in 10.0 mi SSE 4.6 mph - N/A   Clear